Flag for U.S.A. Weather past 2 weeks in Overland Park, Kansas, U.S.A.

Now
80 °F

Sunny.


Feels Like: 81 °F
Forecast: 67 / 88 °F
Wind: 6 mph from Southwest

Location: Johnson County Executive Airport

Current Time: Jul 30, 2015 at 11:19:44 AM

Latest Report: Jul 30, 2015 at 10:53 AM


Visibility: 10 mi

Pressure: 30.20 "Hg

Humidity: 47%

Dew point: 58 °F

Location of Overland ParkLocation

Historic Weather in Overland Park — Graph

°F

Overland Park temperature yesterday

Maximum temperature yesterday: 85 °F (at 3:53 PM)
Minimum temperature yesterday: 70 °F (at 6:02 AM)
Average temperature yesterday: 77 °F

Past Weeks' High & Low Weather Summary

 TemperatureHumidityPressure
High94 °F (Jul 24, 4:53 PM)100% (Jul 20, 4:53 AM)30.19 "Hg (Jul 20, 4:53 AM)
Low63 °F (Jul 22, 4:53 AM)49% (Jul 28, 2:53 PM)29.74 "Hg (Jul 16, 6:53 PM)
Average80 °F77%29.89 "Hg
* Reported Jul 15 9:53 AM — Jul 30 9:53 AM, Overland Park, Weather by CustomWeather, © 2015

Note: Actual official high and low records may vary slightly from our data, if they occured in-between our weather recording intervals... More about our weather records

Advertising

Overland Park weather history for previous 24 hours

 ConditionsComfort  
Time TempWeatherWind HumidityBarometerVisibility
9:53 AM
Thu, Jul 30
79 °FSunny.3 mph54%30.19 "Hg10 mi
8:53 AM76 °FSunny.5 mph67%30.19 "Hg10 mi
7:53 AM72 °FSunny.No wind81%30.16 "Hg10 mi
6:53 AM68 °FClear.No wind87%30.14 "Hg10 mi
5:53 AM66 °FClear.3 mph90%30.14 "Hg10 mi
4:53 AM69 °FClear.No wind87%30.14 "Hg10 mi
3:53 AM69 °FClear.No wind84%30.15 "Hg10 mi
2:53 AM68 °FClear.No wind90%30.14 "Hg10 mi
1:53 AM71 °FClear.5 mph84%30.14 "Hg10 mi
12:53 AM71 °FClear.5 mph84%30.14 "Hg10 mi
11:53 PM
Wed, Jul 29
71 °FClear.5 mph84%30.14 "Hg10 mi
10:53 PM74 °FClear.3 mph76%30.14 "Hg10 mi
9:53 PM74 °FClear.5 mph76%30.12 "Hg10 mi
8:53 PM77 °FSunny.5 mph69%30.10 "Hg10 mi
7:53 PM81 °FSunny.7 mph58%30.11 "Hg10 mi
6:53 PM83 °FSunny.8 mph51%30.09 "Hg10 mi
5:53 PM82 °FSunny.7 mph51%30.09 "Hg10 mi
4:53 PM84 °FSunny.7 mph53%30.09 "Hg10 mi
3:53 PM85 °FSunny.10 mph50%30.09 "Hg10 mi
2:53 PM83 °FScattered clouds.10 mph57%30.09 "Hg10 mi
1:53 PM83 °FScattered clouds.13 mph61%30.10 "Hg10 mi
12:53 PM81 °FPassing clouds.10 mph69%30.11 "Hg10 mi
11:53 AM80 °FPassing clouds.9 mph71%30.12 "Hg10 mi
11:00 AM74 °FScattered clouds.12 mph88%30.12 "Hg10 mi
Weather by CustomWeather, © 2015

See weather overviewHow to use our weather pages